AO-07 1 07530U 74089B 22020.56072538 -.00000051 00000-0 -29885-4 0 9999 2 07530 101.8863 0.0728 0012166 326.6400 148.2281 12.53652370158934 UO-11 1 14781U 84021B 22020.53779991 .00000440 00000-0 59600-4 0 9994 2 14781 97.6060 14.8440 0009978 88.3005 271.9352 14.83416278 18113 LO-19 1 20442U 90005G 22020.77754377 .00000040 00000-0 31145-4 0 9991 2 20442 98.7737 343.5582 0010777 240.2318 119.7794 14.33017116672018 HUBBLE 1 20580U 90037B 22020.53974347 .00001488 00000-0 78492-4 0 9997 2 20580 28.4710 68.4011 0002377 238.1016 239.1213 15.09956271543838 MET-2/21 1 22782U 93055A 22020.55740271 .00000031 00000-0 14014-4 0 9998 2 22782 82.5505 131.6278 0023084 45.2597 325.3366 13.83843989433559 AO-27 1 22825U 93061C 22020.68483257 .00000024 00000-0 27314-4 0 9994 2 22825 98.9034 48.4722 0009370 119.2747 240.9372 14.30140459477300 IO-26 1 22826U 93061D 22020.67354528 .00000027 00000-0 27976-4 0 9999 2 22826 98.8976 48.3504 0009994 107.7430 252.4843 14.30482251477530 FO-29 1 24278U 96046B 22020.69436003 -.00000003 00000-0 36010-4 0 9993 2 24278 98.5374 64.5720 0349424 306.7184 50.2327 13.53109522255877 NOAA-15 1 25338U 98030A 22020.73147314 .00000061 00000-0 43710-4 0 9993 2 25338 98.6615 52.0730 0010515 13.9827 346.1642 14.26083735232212 GO-32 1 25397U 98043D 22020.77661980 .00000023 00000-0 29501-4 0 9996 2 25397 98.7999 331.0116 0001720 136.3165 223.8150 14.23728701222630 ISS 1 25544U 98067A 22020.72035763 .00007752 00000-0 14579-3 0 9999 2 25544 51.6445 346.8728 0006795 43.1425 16.8937 15.49568201322317 NO-44 1 26931U 01043C 22020.59725605 .00000041 00000-0 47336-4 0 9996 2 26931 67.0514 80.0225 0006934 280.4296 79.6024 14.30655925 60415 SO-50 1 27607U 02058C 22020.48143956 .00000479 00000-0 87691-4 0 9998 2 27607 64.5554 34.6126 0066977 324.3212 35.3422 14.75879446 26537 CO-55 1 27844U 03031E 22020.56551338 .00000122 00000-0 74388-4 0 9993 2 27844 98.6803 30.4792 0010125 164.6329 195.5158 14.22371251962847 CO-57 1 27848U 03031J 22020.55343614 .00000097 00000-0 63906-4 0 9997 2 27848 98.6853 31.0122 0009765 178.1111 182.0105 14.21939627962666 RS-22 1 27939U 03042A 22020.75222135 .00000473 00000-0 92945-4 0 9999 2 27939 98.1678 161.7477 0011951 318.3587 41.6709 14.67109320979382 NOAA-18 1 28654U 05018A 22020.74792163 .00000122 00000-0 89839-4 0 9990 2 28654 98.9685 91.1932 0014590 32.5933 327.6136 14.12678962859210 CO-58 1 28895U 05043F 22020.36204547 .00000539 00000-0 11169-3 0 9999 2 28895 98.0842 154.2626 0015619 245.4293 114.5283 14.64059466865741 Falconsat-3 1 30776U 07006E 22020.60833343 .00013805 00000-0 29010-3 0 9994 2 30776 35.4331 141.4668 0002201 94.8073 265.2908 15.44503947826651 CO-65 1 32785U 08021C 22020.48133239 .00001226 00000-0 13578-3 0 9993 2 32785 97.6388 356.2582 0013152 11.0886 349.0619 14.89002370744466 AAUSAT2 1 32788U 08021F 22020.49389403 .00002382 00000-0 21612-3 0 9995 2 32788 97.5210 11.3129 0010113 259.9617 100.0464 14.96184667746303 DO-64 1 32789U 08021G 22020.63080310 .00006037 00000-0 36990-3 0 9993 2 32789 97.3557 52.5407 0012801 112.3478 247.9111 15.10459812749694 CO-66 1 32791U 08021J 22020.51597632 .00001212 00000-0 12540-3 0 9998 2 32791 97.5955 1.9610 0012240 329.8598 30.1916 14.91812319745133 RS-30 1 32953U 08025A 22020.85383926 .00000021 00000-0 80971-4 0 9999 2 32953 82.5040 275.7158 0018598 222.0936 137.8719 12.43106708619995 PRISM 1 33493U 09002B 22019.62371398 .00004884 00000-0 41449-3 0 9995 2 33493 98.2179 358.0095 0012571 295.6462 64.3460 14.98368312706685 NOAA-19 1 33591U 09005A 22020.73270976 .00000072 00000-0 64343-4 0 9995 2 33591 99.1662 51.6348 0013129 241.0200 118.9655 14.12523657667592 SRMSAT 1 37841U 11058D 22020.49752659 .00000336 00000-0 39658-4 0 9998 2 37841 19.9729 69.2278 0011883 157.3703 231.9548 14.10721934530320 HRBE 1 37855U 11061F 22020.72956105 .00005280 00000-0 25009-3 0 9992 2 37855 101.7181 62.2909 0162108 143.8398 217.3907 15.09295948559405 RS-40 1 38735U 12041C 22020.74753177 .00000018 00000-0 57115-4 0 9993 2 38735 82.4783 357.5979 0017087 337.4983 22.5352 12.42583985430176 ZACUBE-1 1 39417U 13066B 22020.50697206 .00000814 00000-0 10656-3 0 9995 2 39417 97.6185 358.9139 0058590 168.1948 192.0655 14.81783200441218 Delfi-N3xt 1 39428U 13066N 22020.55595543 .00001777 00000-0 28367-3 0 9990 2 39428 97.8040 321.4732 0119962 31.0625 329.7602 14.68382664436823 GOMX-1 1 39430U 13066Q 22020.76193009 .00000584 00000-0 11308-3 0 9999 2 39430 97.8162 296.3739 0150587 149.8516 211.1466 14.59815093434741 LO-74 1 39440U 13066AA 22020.47110113 .00000934 00000-0 13490-3 0 9996 2 39440 97.7070 344.4862 0078038 251.2731 107.9999 14.76503643438446 AO-73 1 39444U 13066AE 22020.49005558 .00001045 00000-0 13199-3 0 9998 2 39444 97.6074 1.2898 0057837 157.4243 202.9535 14.82743604439598 SPROUT 1 39770U 14029E 22020.77205300 .00004014 00000-0 43011-3 0 9993 2 39770 97.9303 137.1640 0008436 203.8473 156.2358 14.89213518415674 DTUSAT-2 1 40030U 14033W 22020.52893796 .00001117 00000-0 12370-3 0 9999 2 40030 97.9297 312.8712 0011739 173.8155 186.3209 14.89302575411624 EO-80 1 40032U 14033Y 22020.76664444 .00001188 00000-0 13135-3 0 9991 2 40032 97.9303 313.1198 0011681 174.2121 185.9233 14.89266769412155 HODOYOSHI-1 1 40299U 14070B 22020.82384597 .00003560 00000-0 14329-3 0 9994 2 40299 97.2639 93.3210 0011332 305.1657 192.8419 15.25467287400541 FIREBIRD FU3 1 40377U 15003B 22020.48551814 .00012170 00000-0 41043-3 0 9998 2 40377 99.1121 212.9191 0111020 164.1412 196.3344 15.25119149385830 FIREBIRD FU4 1 40378U 15003C 22020.78158574 .00009931 00000-0 33494-3 0 9990 2 40378 99.1125 213.4591 0111037 162.8591 197.6440 15.25193157385894 GRIFEX 1 40379U 15003D 22020.73838328 .00007644 00000-0 29399-3 0 9996 2 40379 99.1149 200.7745 0122991 200.8632 158.7555 15.19965428385178 XW-2A 1 40903U 15049E 22020.79880932 .00011839 00000-0 22817-3 0 9992 2 40903 97.2071 79.5570 0010108 305.4930 190.2733 15.47954033356382 XW-2C 1 40906U 15049H 22020.83560451 .00003385 00000-0 17182-3 0 9997 2 40906 97.4917 25.6328 0015127 146.3820 334.4460 15.17500721350522 XW-2D 1 40907U 15049J 22020.76540448 .00003988 00000-0 19941-3 0 9998 2 40907 97.4903 25.4462 0014460 142.5850 269.7332 15.17925134350555 LILACSAT-2 1 40908U 15049K 22020.78456196 .00001857 00000-0 10309-3 0 9999 2 40908 97.5119 22.9755 0015817 161.9089 10.2277 15.14884447350127 XW-2E 1 40909U 15049L 22020.74851983 .00006123 00000-0 28005-3 0 9992 2 40909 97.4663 29.7101 0014129 126.8679 348.2578 15.20811558350949 XW-2F 1 40910U 15049M 22020.76872098 .00005980 00000-0 27754-3 0 9996 2 40910 97.4738 28.8345 0015266 127.5415 47.5634 15.20303221350724 XW-2B 1 40911U 15049N 22020.72631163 .00004128 00000-0 20686-3 0 9999 2 40911 97.4885 26.0505 0014419 143.9941 331.3985 15.17833344350432 DCBB 1 40912U 15049P 22020.78822742 .00006880 00000-0 29449-3 0 9994 2 40912 97.4420 33.2281 0015577 99.1471 75.1758 15.23011628351257 TW-1A 1 40928U 15051D 22020.86098586 .00018987 00000-0 33891-3 0 9991 2 40928 97.0591 45.8269 0007465 201.7676 283.3576 15.50068498355318 IO-86 1 40931U 15052B 22020.68202023 .00000893 00000-0 35107-4 0 9999 2 40931 5.9953 143.0482 0013443 242.5156 117.3839 14.76722360341460 ATHENOXAT-1 1 41168U 15077C 22020.59809949 .00009118 00000-0 40758-3 0 9995 2 41168 14.9971 102.9763 0011111 331.4562 67.3711 15.17323426337798 ChubuSat-2 1 41338U 16012B 22020.31018959 .00001273 00000-0 91102-4 0 9991 2 41338 31.0018 246.7092 0013356 123.7650 236.4259 15.00804002325209 ChubuSat-3 1 41339U 16012C 22020.77873697 .00001391 00000-0 99911-4 0 9997 2 41339 31.0116 240.7523 0012903 135.6457 224.5227 15.00930983325274 Horyu-4 1 41340U 16012D 22019.92165887 .00002185 00000-0 15466-3 0 9993 2 41340 31.0031 226.9304 0013468 164.3246 195.7808 15.02348204325362 e-st@r-II 1 41459U 16025D 22020.67211247 .00006333 00000-0 29618-3 0 9997 2 41459 98.1671 175.4880 0155780 50.2190 311.2622 15.09959698315178 AAUSAT4 1 41460U 16025E 22020.40558519 .00009261 00000-0 40355-3 0 9990 2 41460 98.1648 180.2819 0140305 30.9894 329.9466 15.13907826315503 LO-87 1 41557U 16033B 22020.77737390 .00008636 00000-0 28892-3 0 9999 2 41557 97.3913 118.6958 0012286 176.3225 302.4633 15.31149187314761 NuSat2 1 41558U 16033C 22020.74565316 .00008379 00000-0 26253-3 0 9997 2 41558 97.4064 123.5594 0011314 167.7404 341.8562 15.33276423314994 Lapan A3 1 41603U 16040E 22020.76058434 .00001063 00000-0 51969-4 0 9992 2 41603 97.2281 64.0841 0012535 326.9507 169.4800 15.20252237309599 Pratham 1 41783U 16059A 22020.58854183 .00000232 00000-0 53856-4 0 9990 2 41783 97.9360 67.9068 0032141 281.2938 78.4653 14.63219435284004 TY-1 1 41844U 16066D 22020.81584041 .00007909 00000-0 30061-3 0 9995 2 41844 97.3941 33.8596 0016148 90.0400 82.5692 15.26940936289054 CAS-2T 1 41847U 16066G 22020.59907324 .00000399 00000-0 71221-4 0 9996 2 41847 98.5730 85.3065 0363672 292.0009 64.2916 14.38329121273097 EO-88 1 42017U 17008BX 22020.44333305 .00008422 00000-0 29051-3 0 9997 2 42017 97.2906 89.0801 0007012 64.8028 295.3939 15.30205377274414 CAS-4B 1 42759U 17034B 22020.60467461 .00002729 00000-0 17472-3 0 9996 2 42759 43.0182 66.8605 0006725 75.8407 58.9765 15.10753929253988 CAS-4A 1 42761U 17034D 22020.88825231 .00002864 00000-0 18228-3 0 9992 2 42761 43.0184 64.1972 0007016 82.0810 274.4151 15.10843905254027 NIUSat 1 42766U 17036B 22020.56145441 .00003723 00000-0 15655-3 0 9998 2 42766 97.2232 63.7768 0015991 126.2509 234.0209 15.23892138254260 Aalto 1 1 42775U 17036L 22020.55442139 .00003144 00000-0 13377-3 0 9997 2 42775 97.2194 63.8763 0014593 125.0133 235.2477 15.23624409254242 URSA MAIOR 1 42776U 17036M 22020.38185540 .00004442 00000-0 18576-3 0 9997 2 42776 97.2207 64.3144 0014355 124.8758 235.3831 15.23995711254245 Max Valier Sat 1 42778U 17036P 22020.55889252 .00003753 00000-0 15418-3 0 9995 2 42778 97.2278 66.8227 0012928 125.4344 234.8103 15.24713623254355 Pegasus 1 42784U 17036V 22020.36273309 .00005953 00000-0 23498-3 0 9992 2 42784 97.2221 67.2599 0012363 127.5010 232.7355 15.25828193254416 NUDATSat 1 42787U 17036Y 22020.63506202 .00011160 00000-0 40260-3 0 9999 2 42787 97.2263 70.7620 0011242 114.6066 245.6347 15.28619858254482 SUCHAI 1 1 42788U 17036Z 22020.68973690 .00005923 00000-0 22615-3 0 9998 2 42788 97.2228 68.8870 0011943 122.7532 237.4860 15.26940188254610 SKCUBE 1 42789U 17036AA 22020.10883746 .00006969 00000-0 26888-3 0 9995 2 42789 97.2225 67.9187 0011823 125.2429 234.9918 15.26533628254421 VZLUSAT 1 1 42790U 17036AB 22020.11099304 .00009769 00000-0 35356-3 0 9998 2 42790 97.2258 70.2345 0011068 119.3966 240.8380 15.28550296254558 VENTA 1 1 42791U 17036AC 22020.56427821 .00004895 00000-0 19091-3 0 9990 2 42791 97.2222 68.3302 0011506 124.1897 236.0434 15.26326225254485 Robusta 1B 1 42792U 17036AD 22020.36676657 .00006757 00000-0 25831-3 0 9990 2 42792 97.2226 68.6417 0011442 124.3149 235.9175 15.26857359254501 D-SAT 1 42794U 17036AF 22020.55870190 .00001045 00000-0 94490-4 0 9994 2 42794 97.4539 33.8410 0123676 219.5844 139.6297 14.91931536249422 TechnoSat 1 42829U 17042E 22020.57148244 .00000798 00000-0 84752-4 0 9994 2 42829 97.4386 243.1912 0015056 137.3591 222.8801 14.91482630246049 QIKCOM-1 1 42983U 98067NF 22020.79956917 .00025316 00000-0 17652-3 0 9996 2 42983 51.6314 230.2656 0003010 111.7742 248.3578 15.74163513241548 AO-91 1 43017U 17073E 22020.45268002 .00003191 00000-0 24864-3 0 9997 2 43017 97.6912 280.6740 0251715 312.2254 45.7840 14.80216730225210 PICSAT 1 43132U 18004X 22020.48782527 .00007732 00000-0 28905-3 0 9991 2 43132 97.3890 98.0345 0009157 153.8407 206.3297 15.27584659223794 AO-92 1 43137U 18004AC 22020.01399143 .00006952 00000-0 26809-3 0 9997 2 43137 97.3862 96.7323 0008859 157.6353 202.5274 15.26594180223689 TianYi 2 1 43155U 18008A 22020.81735205 .00004490 00000-0 25461-3 0 9990 2 43155 97.3762 84.0201 0015557 300.2141 198.8914 15.13373358220938 Zhou Enlai 1 43156U 18008B 22020.85505360 .00004751 00000-0 27195-3 0 9998 2 43156 97.3803 83.9044 0012821 301.6348 111.0055 15.13035549220876 TianYi 6 1 43158U 18008D 22020.76735192 .00004419 00000-0 25829-3 0 9991 2 43158 97.3764 82.0642 0012083 301.5013 177.9226 15.12323989220773 S-Net D 1 43186U 18014G 22020.49989836 .00001418 00000-0 12699-3 0 9992 2 43186 97.6693 289.0459 0012736 76.0173 284.2465 14.97345142216778 S-Net B 1 43187U 18014H 22020.49990800 .00001407 00000-0 12601-3 0 9997 2 43187 97.6690 289.0040 0012749 75.9314 284.3324 14.97344375216773 S-Net A 1 43188U 18014J 22020.70059444 .00001284 00000-0 11541-3 0 9997 2 43188 97.6694 289.2561 0012728 75.3202 284.9430 14.97343507216809 S-Net C 1 43189U 18014K 22020.50065683 .00001352 00000-0 12130-3 0 9999 2 43189 97.6689 288.9953 0012717 75.8395 284.4239 14.97342705215328 FMN 1 1 43192U 18015A 22020.85501128 .00016200 00000-0 53939-3 0 9991 2 43192 97.5127 163.1020 0012750 191.1296 318.5012 15.31136159220817 Shaonian Xing 1 43199U 18015H 22020.86933789 .00010836 00000-0 37865-3 0 9990 2 43199 97.4911 159.3481 0014359 200.0956 284.0890 15.29644428220857 SurfSat 1 43614U 18070B 22020.58439670 .00012666 00000-0 26158-3 0 9998 2 43614 93.0199 36.5664 0010241 229.7053 130.3310 15.45770913188164 CP-7 DAVE 1 43615U 18070C 22020.52221220 .00011900 00000-0 24961-3 0 9993 2 43615 93.0200 36.4596 0010460 230.9373 129.0955 15.45314232188138 ELFIN-B 1 43616U 18070D 22020.58176127 .00018629 00000-0 32506-3 0 9994 2 43616 93.0155 37.0601 0009693 219.7921 140.2629 15.50601804188348 ELFIN-A 1 43617U 18070E 22020.58119902 .00019696 00000-0 33358-3 0 9994 2 43617 93.0208 38.1470 0009133 214.4773 145.5896 15.51445621188371 CubeBel-1 1 43666U 18083E 22020.78084358 .00006421 00000-0 29534-3 0 9993 2 43666 97.4369 51.3177 0015406 126.3452 351.2135 15.20582360179029 Changshagaoxin 1 43669U 18083H 22020.82901814 .00005392 00000-0 25853-3 0 9992 2 43669 97.4292 47.7863 0011692 121.4418 52.9704 15.19262874178871 Ten-Koh 1 43677U 18084G 22020.62251518 .00000784 00000-0 85718-4 0 9996 2 43677 97.9431 149.5937 0016840 42.7628 317.4896 14.90672705175651 PO-101 1 43678U 18084H 22020.90750292 .00000273 00000-0 32791-4 0 9997 2 43678 97.9481 152.6977 0011153 56.5997 303.6306 14.91884051175855 IRVINE 01 1 43693U 18088D 22020.53542220 .00011973 00000-0 42252-3 0 9998 2 43693 85.0305 50.3359 0012642 307.3321 52.6772 15.29028498177560 QO-100 1 43700U 18090A 22020.32207730 .00000155 00000-0 00000-0 0 9993 2 43700 0.0154 68.8606 0002253 264.1539 288.3803 1.00272121 11541 Reaktor Hello World 1 43743U 18096AA 22020.78818317 .00005707 00000-0 19576-3 0 9994 2 43743 97.3676 101.6171 0015356 221.4763 138.5313 15.30454960175355 MinXSS-2 1 43758U 18099A 22020.44902438 .00001545 00000-0 14078-3 0 9992 2 43758 97.6432 91.9057 0016081 45.4772 314.7760 14.96480388170968 AO-95 1 43770U 18099N 22020.43908430 .00001066 00000-0 10072-3 0 9991 2 43770 97.6412 90.5776 0015488 55.1965 305.0711 14.95686862170889 RANGE-B 1 43772U 18099Q 22020.14974668 .00002710 00000-0 24550-3 0 9990 2 43772 97.6516 91.6581 0015053 45.0002 315.2436 14.96106396170854 RANGE-A 1 43773U 18099R 22020.46594997 .00001492 00000-0 13964-3 0 9992 2 43773 97.6342 89.6899 0014384 44.2993 315.9376 14.95484183170871 MOVE-II 1 43780U 18099Y 22019.96554793 .00001849 00000-0 16741-3 0 9995 2 43780 97.6443 90.9425 0014337 52.9975 307.2557 14.96514681170845 SNUSat 2 1 43782U 18099AA 22020.43837311 .00000884 00000-0 83991-4 0 9991 2 43782 97.6413 90.9933 0013508 42.3356 317.8905 14.95902125170907 SnugLite 1 43784U 18099AC 22020.42687484 .00001054 00000-0 98713-4 0 9994 2 43784 97.6379 90.6536 0016050 48.8912 311.3692 14.96056423170926 ITASat 1 1 43786U 18099AE 22020.45235687 .00001171 00000-0 10940-3 0 9998 2 43786 97.6433 91.4184 0015952 48.4707 311.7880 14.95931005170925 EAGLET 1 1 43790U 18099AJ 22020.50536751 .00000555 00000-0 54138-4 0 9998 2 43790 97.6427 91.9646 0014430 51.6821 308.5695 14.96236878170660 ESEO 1 43792U 18099AL 22020.46346732 .00000883 00000-0 83842-4 0 9991 2 43792 97.6385 91.3222 0014281 50.1830 310.0646 14.95893339170706 CSIM 1 43793U 18099AM 22020.80698653 .00002454 00000-0 21686-3 0 9995 2 43793 97.6436 92.4981 0013678 45.6460 314.5880 14.97179442170786 Astrocast 0.1 1 43798U 18099AS 22020.14873574 .00003018 00000-0 26943-3 0 9992 2 43798 97.6441 91.9214 0013094 35.4098 324.7990 14.96619231170921 JO-97 1 43803U 18099AX 22020.44279562 .00001241 00000-0 11473-3 0 9997 2 43803 97.6395 91.1461 0015879 47.7462 312.5103 14.96256373170932 Suomi 100 1 43804U 18099AY 22020.45366495 .00001489 00000-0 13685-3 0 9992 2 43804 97.6389 91.1020 0015910 48.2676 311.9903 14.96205898170944 Al Farabi 2 1 43805U 18099AZ 22020.75105874 .00002924 00000-0 26151-3 0 9995 2 43805 97.6419 91.7446 0016171 48.2503 312.0080 14.96545270171003 CHOMPTT 1 43855U 18104G 22020.59497286 .00004196 00000-0 16503-3 0 9993 2 43855 85.0389 149.5160 0018346 67.6379 292.6807 15.25173371172173 ISAT 1 43879U 18111D 22020.72543749 .00001364 00000-0 12309-3 0 9992 2 43879 97.6756 289.0240 0014201 92.1003 268.1856 14.97071572165552 UWE-4 1 43880U 18111E 22020.54689486 .00001907 00000-0 16921-3 0 9990 2 43880 97.6780 289.4571 0013661 96.3821 263.8957 14.97283175167566 Sparrow 1 43881U 18111F 22020.30772425 .00001796 00000-0 15933-3 0 9999 2 43881 97.6805 289.4028 0014044 93.0990 267.1839 14.97374126167539 Lume 1 1 43908U 18111AJ 22020.26473654 .00005770 00000-0 21554-3 0 9998 2 43908 97.2110 272.8659 0017977 239.6379 120.3084 15.27599651170753 FO-98 1 43933U 19003B 22020.59988475 .00042234 00000-0 11121-2 0 9999 2 43933 97.1580 59.8795 0011110 344.6610 15.4297 15.38355612167332 FO-99 1 43937U 19003F 22020.57501552 .00005812 00000-0 21846-3 0 9995 2 43937 97.1505 59.9026 0021113 325.5133 34.4735 15.27324780167386 MYSat 1 1 44045U 18092F 22020.37341620 .00016152 00000-0 35484-3 0 9991 2 44045 51.6362 84.9585 0008902 279.9128 80.0853 15.44131935164920 AstroCast 0.2 1 44083U 19018F 22020.69280639 .00005886 00000-0 24499-3 0 9995 2 44083 97.3450 82.5200 0010748 292.1280 67.8816 15.24079529155966 AISTechSat 3 1 44103U 19018AB 22020.73888308 .00005838 00000-0 23498-3 0 9995 2 44103 97.3318 83.0070 0011507 301.9982 206.4958 15.25202532156114 AISat 1 1 44104U 19018AC 22020.76864609 .00003726 00000-0 11360-3 0 9996 2 44104 97.4078 103.5397 0053645 302.1113 57.4928 15.33194771156954 Prox-1 1 44339U 19036A 22020.48023225 .00002187 00000-0 45863-3 0 9991 2 44339 24.0017 46.8621 0011560 39.1121 321.0204 14.54104499136784 Oculus-ASR 1 44348U 19036K 22020.56569268 .00026286 00000-0 31797-3 0 9999 2 44348 28.5083 120.4850 0296259 111.0999 252.1531 15.21181503141893 Armadillo 1 44352U 19036P 22020.51301522 .00052571 -55236-5 51947-3 0 9998 2 44352 28.5281 77.3823 0243196 178.5995 181.5323 15.35075234142279 NO-104 1 44354U 19036R 22020.54652910 .00029248 00000-0 34212-3 0 9997 2 44354 28.5258 110.2863 0289786 125.0305 237.7839 15.23162270141991 NO-103 1 44355U 19036S 22020.31852038 .00132498 -24082-5 93061-3 0 9997 2 44355 28.5256 18.2385 0176406 274.3632 83.6835 15.54500603142895 Move-IIb 1 44398U 19038N 22020.90904259 .00008154 00000-0 43480-3 0 9993 2 44398 97.6074 349.5007 0021447 281.9837 77.8991 15.15242114140672 SONATE 1 44400U 19038Q 22020.86013014 .00003203 00000-0 18297-3 0 9990 2 44400 97.6177 349.0612 0023014 284.0246 75.8426 15.13234526140607 BeeSat 9 1 44412U 19038AC 22020.42218223 .00003742 00000-0 20653-3 0 9991 2 44412 97.6181 349.1058 0019716 288.1889 71.7195 15.14420861140273 JAISAT-1 1 44419U 19038F 22020.71888418 .00003810 00000-0 20747-3 0 9999 2 44419 97.6180 350.1238 0018629 284.9507 74.9662 15.14905137140676 LightSail-2 1 44420U 19036AC 22020.32706972 .00026386 00000-0 48116-2 0 9992 2 44420 24.0042 10.6886 0020289 97.3821 262.8979 14.64480625135257 Taurus 1 1 44530U 19059C 22020.76132220 .00001429 00000-0 40950-3 0 9996 2 44530 98.5480 117.9728 0013986 201.2576 158.8041 14.46443386124497 Duchifat 3 1 44854U 19089C 22020.37838178 .00002473 00000-0 20127-3 0 9994 2 44854 36.9650 257.3968 0006629 90.2692 269.8893 15.00001196115686 OPS-SAT 1 44878U 19092F 22020.54246964 .00004848 00000-0 24391-3 0 9994 2 44878 97.4743 206.0668 0014310 131.2665 228.9804 15.17604342115742 TO-108 1 44881U 19093C 22020.81310467 .00000363 00000-0 52903-4 0 9998 2 44881 97.9076 102.0810 0014067 311.0504 48.9487 14.81545930112913 FloripaSat 1 1 44885U 19093G 22020.76653852 .00001261 00000-0 16321-3 0 9995 2 44885 97.9103 102.9816 0013656 317.8377 42.1798 14.82577080112966 RS-44 1 44909U 19096E 22020.58264860 .00000015 00000-0 22298-4 0 9999 2 44909 82.5241 328.5340 0216600 305.6898 52.4213 12.79712062 96592 Phoenix 1 45258U 98067RB 22020.21554520 .00041294 00000-0 40946-3 0 9990 2 45258 51.6376 318.8420 0003667 9.7482 350.3584 15.65368098109045 QARMAN 1 45263U 98067RG 22020.73567422 .00355310 61580-4 85442-3 0 9999 2 45263 51.6277 292.1113 0004511 154.7631 205.3598 15.95915949109501 Quetzal 1 1 45598U 98067RL 22020.50484134 .00181393 00000-0 82049-3 0 9997 2 45598 51.6354 304.2260 0004813 134.6523 225.4872 15.82893452 98592 BY70-2 1 45857U 20042B 22020.77971083 .00004049 00000-0 56877-3 0 9998 2 45857 97.9697 99.2031 0010037 227.7588 132.2783 14.77921527 83633 UPMSat 2 1 46276U 20061E 22020.47504486 .00002573 00000-0 13346-3 0 9995 2 46276 97.4103 94.6793 0001460 36.4162 323.7170 15.17025448 76432 AmicalSat 1 46287U 20061R 22020.15754361 .00003503 00000-0 21243-3 0 9990 2 46287 97.4653 93.4848 0004118 78.5562 281.6130 15.11186286 76065 SALSAT 1 46495U 20068K 22020.54315821 .00001330 00000-0 10096-3 0 9995 2 46495 97.7140 322.0241 0018917 60.4202 299.8900 15.03798671 71958 BY70-3 1 46839U 20079N 22020.83475809 .00013204 00000-0 37511-3 0 9998 2 46839 97.2198 95.4186 0007574 134.1082 2.6348 15.36273121 67549 SPOC 1 46921U 98067RR 22020.57767635 .00033170 00000-0 36769-3 0 9992 2 46921 51.6399 328.1116 0002392 133.8179 226.3013 15.62642188 68708 Bobcat-1 1 46922U 98067RS 22020.52648738 .00069431 00000-0 55220-3 0 9992 2 46922 51.6409 321.0522 0003143 132.2671 227.8593 15.70565596 68748 Neutron-1 1 46923U 98067RT 22020.54683879 .00032780 00000-0 36491-3 0 9996 2 46923 51.6406 328.6594 0002134 138.7876 221.3279 15.62539851 68729 CAPE 3 1 47309U 21002A 22020.79629425 .00004782 00000-0 21669-3 0 9996 2 47309 60.6829 198.7290 0030357 167.8176 192.3651 15.22068421 55958 AO-109 1 47311U 21002C 22020.58641797 .00004551 00000-0 20260-3 0 9992 2 47311 60.6842 197.7512 0027378 161.1669 199.0437 15.22854012 55927 MiTEE 1 1 47314U 21002F 22020.78459046 .00007910 00000-0 31837-3 0 9995 2 47314 60.6832 193.5069 0029724 151.4164 208.8562 15.25336050 56030 ExoCube 2 1 47319U 21002L 22020.47959528 .00005036 00000-0 22532-3 0 9995 2 47319 60.6843 198.8852 0027936 162.4996 197.7060 15.22469367 55867 UVSQ-SAT 1 47438U 21006AB 22020.43761568 .00003703 00000-0 20733-3 0 9992 2 47438 97.4599 82.5216 0013948 71.2253 289.0490 15.13960313 54878 YUSAT 1 1 47439U 21006AC 22020.10289744 .00004660 00000-0 25912-3 0 9995 2 47439 97.4605 82.2182 0013810 72.4872 287.7868 15.14085321 54821 SOMP 2b 1 47445U 21006AJ 22020.41142762 .00002851 00000-0 16145-3 0 9992 2 47445 97.4570 82.2716 0013663 74.9083 285.3659 15.13750197 54864 IDEASSat 1 47458U 21006AX 22020.44405697 .00003570 00000-0 20207-3 0 9991 2 47458 97.4661 82.6611 0012715 73.3278 286.9348 15.13610140 54868 RSP-01 1 47925U 98067SB 22020.59391852 .00036752 00000-0 44212-3 0 9994 2 47925 51.6418 336.4655 0003189 107.8377 252.2964 15.60465004 48564 TAUSAT-1 1 47926U 98067SC 22020.74423062 .00049888 00000-0 52348-3 0 9994 2 47926 51.6411 332.9491 0004165 112.6701 247.4734 15.63850642 48613 Tsuru 1 47927U 98067SD 22020.28411973 .00037562 00000-0 47192-3 0 9999 2 47927 51.6410 338.8928 0003063 106.3500 253.7829 15.59312092 48506 STARS-EC 1 47928U 98067SE 22020.09823944 .00078405 00000-0 79597-3 0 9999 2 47928 51.6401 336.8843 0004119 163.8249 196.2879 15.64499748 48496 Maya-2 1 47929U 98067SF 22020.60020895 .00031555 00000-0 39758-3 0 9991 2 47929 51.6414 337.2517 0003134 105.2601 254.8739 15.59324335 48514 OPUSAT-II 1 47930U 98067SG 22020.57326517 .00061877 00000-0 60650-3 0 9994 2 47930 51.6393 333.3186 0003933 109.2591 250.8830 15.65482650 48600 GuaraniSat-1 1 47931U 98067SH 22020.01852734 .00034140 00000-0 42908-3 0 9998 2 47931 51.6422 340.1252 0003224 102.8430 257.2923 15.59349473 48464 CubeSX-Sirius-HSE 1 47951U 21022V 22020.85999988 .00003768 00000-0 25974-3 0 9998 2 47951 97.5444 283.4906 0020527 292.3257 67.5802 15.06263165 45775 CubeSX-HSE 1 47952U 21022W 22020.85208926 .00003549 00000-0 24472-3 0 9993 2 47952 97.5454 283.4949 0020221 292.1009 67.8047 15.06302638 45771 KSU-Cubesat 1 47954U 21022Y 22019.37223883 .00003691 00000-0 25358-3 0 9991 2 47954 97.5452 282.0996 0019672 297.5160 62.4068 15.06419740 45275 GRBAlpha 1 47959U 21022AD 22020.53855115 .00003596 00000-0 24784-3 0 9991 2 47959 97.5450 283.2098 0020106 293.6079 168.4637 15.06310351 44540 Orbicraft-Zorkiy 1 47960U 21022AE 22020.85414068 .00003217 00000-0 22173-3 0 9996 2 47960 97.5469 283.5996 0019719 293.2720 157.2341 15.06396495 45282 STECCO 1 47962U 21022AG 22020.76159080 .00004233 00000-0 28076-3 0 9995 2 47962 97.5425 283.8810 0015081 290.0448 146.2163 15.07710219 44604 DO-111 1 47963U 21022AH 22020.54243786 .00007403 00000-0 46874-3 0 9997 2 47963 97.5450 284.0433 0017232 284.9773 74.9548 15.09141558 44611 MO-110 1 47964U 21022AJ 22020.69226506 .00003615 00000-0 23818-3 0 9999 2 47964 97.5436 283.9702 0017898 284.8855 75.0391 15.08013747 44605 FEES 1 48082U 21022AL 22020.70283961 .00003919 00000-0 25940-3 0 9996 2 48082 97.5450 283.8468 0013930 282.4114 77.5555 15.07846544 44300 RamSat 1 48850U 98067SL 22019.98522540 .00018204 00000-0 27174-3 0 9993 2 48850 51.6423 345.8622 0002914 206.5186 153.5657 15.55106992 34138 MO-112 1 48868U 98067SP 22020.57766958 .00059280 00000-0 65894-3 0 9992 2 48868 51.6395 339.3154 0002125 146.1243 213.9887 15.62308257 33052 TUBIN 1 48900U 21059X 22020.92159311 .00002557 00000-0 14969-3 0 9996 2 48900 97.5326 151.7660 0008750 250.7316 223.1365 15.12704642 31609 IT-SPINS 1 49017U 21013G 22020.55955322 .00005407 00000-0 23478-3 0 9993 2 49017 51.5925 25.8965 0006973 256.8808 103.1391 15.23840386 31212 LEDSAT 1 49069U 21073D 22019.48768156 .00003951 00000-0 26173-3 0 9990 2 49069 97.5420 95.3453 0029394 84.5202 275.9378 15.07531480 23385 CUTE 1 49263U 21088D 22020.47772094 .00003153 00000-0 24486-3 0 9998 2 49263 97.6050 91.3510 0019552 208.9121 151.1022 15.01911287 17204 Binar-1 1 49272U 98067SR 22020.34723530 .00024804 00000-0 38875-3 0 9999 2 49272 51.6420 346.7660 0005804 116.6054 243.5532 15.53541108 16549 Maya-3 1 49273U 98067SS 22020.32357337 .00032993 00000-0 49879-3 0 9990 2 49273 51.6418 346.6082 0005854 113.7738 246.3867 15.54375835 16541 Maya-4 1 49274U 98067ST 22020.26283862 .00029585 00000-0 44952-3 0 9995 2 49274 51.6420 346.9523 0005773 112.2008 247.9596 15.54295720 16531 CUAVA-1 1 49275U 98067SU 22020.85591169 .00034415 00000-0 52352-3 0 9994 2 49275 51.6436 343.9706 0005543 119.5703 329.1019 15.54186124 16570 TeikyoSat 4 1 49396U 21102B 22020.44525578 .00001120 00000-0 93697-4 0 9995 2 49396 97.5536 82.9385 0019201 33.7231 326.5211 15.00312566 10858 Z-Sat 1 49399U 21102E 22020.76280144 .00000858 00000-0 69609-4 0 9993 2 49399 97.5622 83.4837 0021549 18.8451 341.3567 15.02058748 10918 KOSEN 1 1 49402U 21102H 22020.72011101 .00001887 00000-0 14423-3 0 9995 2 49402 97.5517 83.4779 0022570 4.5504 355.5922 15.02935822 10916 HO-113 1 50466U 21131B 22020.77734080 .00000061 00000-0 34644-4 0 9993 2 50466 98.5963 98.0258 0003920 214.4361 145.6567 14.38436929 3680 DELFI-PQ 1 51074U 22002CU 22019.96127189 .00006049 00000-0 33251-3 0 9996 2 51074 97.5263 89.5698 0013346 245.6357 114.3482 15.14388295 969 /EX
